Radiation Dose at Monitoring Post of Fukushima Daini Nuclear Power Station
Date,Time,MP-1(microSv/h),MP-2(microSv/h),MP-3(microSv/h),MP-4(microSv/h),MP-5(microSv/h),MP-6(microSv/h),MP-7(microSv/h),Wind Direction,Wind Velocity(m/s),Rain
2017/06/09,00:00,0.369,0.229,0.390,0.364,0.325,0.190,0.118,north-northwest,4.8,No
2017/06/09,00:10,0.364,0.229,0.393,0.361,0.331,0.188,0.119,north-northwest,4.4,No
2017/06/09,00:20,0.367,0.228,0.393,0.364,0.325,0.188,0.119,north-northwest,3.0,No
2017/06/09,00:30,0.365,0.228,0.393,0.361,0.329,0.189,0.118,north-northwest,3.3,No
2017/06/09,00:40,0.367,0.229,0.394,0.362,0.326,0.189,0.119,north,4.3,No
2017/06/09,00:50,0.366,0.228,0.392,0.362,0.327,0.189,0.118,north,4.0,No
2017/06/09,01:00,0.365,0.229,0.393,0.364,0.326,0.188,0.119,north,4.0,No
2017/06/09,01:10,0.365,0.227,0.392,0.363,0.328,0.188,0.118,north,3.6,No
2017/06/09,01:20,0.364,0.228,0.393,0.361,0.328,0.189,0.119,north,4.2,No
2017/06/09,01:30,0.366,0.228,0.392,0.363,0.326,0.189,0.118,north-northeast,5.0,No
2017/06/09,01:40,0.364,0.228,0.393,0.362,0.327,0.188,0.118,north,4.8,No
2017/06/09,01:50,0.365,0.228,0.393,0.363,0.326,0.189,0.118,north,4.9,No
2017/06/09,02:00,0.365,0.227,0.394,0.362,0.327,0.188,0.118,north,5.7,No
2017/06/09,02:10,0.366,0.229,0.392,0.363,0.327,0.189,0.118,north-northeast,5.8,No
2017/06/09,02:20,0.364,0.227,0.393,0.363,0.328,0.189,0.119,north-northeast,5.6,No
2017/06/09,02:30,0.365,0.229,0.393,0.362,0.329,0.188,0.118,north-northeast,5.3,No
2017/06/09,02:40,0.365,0.227,0.393,0.363,0.327,0.188,0.118,north-northeast,5.3,No
2017/06/09,02:50,0.365,0.226,0.394,0.362,0.328,0.189,0.118,north,6.0,No
2017/06/09,03:00,0.365,0.229,0.392,0.363,0.326,0.188,0.119,north,4.3,No
2017/06/09,03:10,0.366,0.229,0.394,0.362,0.329,0.188,0.119,north,4.2,No
2017/06/09,03:20,0.367,0.227,0.392,0.362,0.326,0.188,0.118,north,4.5,No
2017/06/09,03:30,0.365,0.229,0.394,0.362,0.328,0.188,0.119,north-northeast,5.6,No
2017/06/09,03:40,0.365,0.228,0.391,0.364,0.327,0.189,0.119,north,5.3,No
2017/06/09,03:50,0.364,0.228,0.394,0.361,0.328,0.189,0.118,north,5.3,No
2017/06/09,04:00,0.368,0.229,0.392,0.365,0.327,0.189,0.118,north-northeast,4.7,No
2017/06/09,04:10,0.365,0.229,0.395,0.360,0.328,0.190,0.119,north-northeast,4.9,No
2017/06/09,04:20,0.364,0.228,0.392,0.364,0.328,0.189,0.120,north-northeast,4.0,No
2017/06/09,04:30,0.365,0.229,0.393,0.361,0.327,0.189,0.118,north-northeast,3.9,No
2017/06/09,04:40,0.366,0.229,0.394,0.362,0.329,0.189,0.119,north-northeast,3.9,No
2017/06/09,04:50,0.364,0.229,0.391,0.362,0.326,0.189,0.119,north-northeast,4.4,No
2017/06/09,05:00,0.365,0.228,0.394,0.363,0.330,0.190,0.118,north-northeast,3.6,No
2017/06/09,05:10,0.366,0.229,0.390,0.363,0.325,0.189,0.119,north-northeast,3.8,No
2017/06/09,05:20,0.365,0.229,0.394,0.362,0.329,0.189,0.118,north-northeast,2.6,No
2017/06/09,05:30,0.365,0.227,0.393,0.364,0.326,0.189,0.119,northeast,3.0,No
2017/06/09,05:40,0.365,0.229,0.393,0.360,0.328,0.189,0.118,north-northeast,2.7,No
2017/06/09,05:50,0.367,0.227,0.393,0.363,0.325,0.189,0.120,north-northeast,1.6,No
2017/06/09,06:00,0.365,0.228,0.392,0.361,0.329,0.188,0.118,north-northeast,2.2,No
2017/06/09,06:10,0.366,0.228,0.392,0.363,0.324,0.189,0.119,north-northeast,1.5,No
2017/06/09,06:20,0.367,0.227,0.392,0.360,0.327,0.188,0.119,northeast,1.6,No
2017/06/09,06:30,0.366,0.229,0.393,0.364,0.326,0.188,0.118,north-northeast,2.7,No
2017/06/09,06:40,0.366,0.225,0.391,0.360,0.326,0.188,0.119,north-northeast,2.3,No
2017/06/09,06:50,0.363,0.226,0.392,0.363,0.329,0.187,0.118,north-northeast,2.4,No
2017/06/09,07:00,0.367,0.227,0.393,0.361,0.325,0.189,0.118,northeast,1.6,No
2017/06/09,07:10,0.362,0.226,0.389,0.359,0.329,0.188,0.118,northeast,1.5,No
2017/06/09,07:20,0.366,0.225,0.392,0.363,0.326,0.189,0.118,northeast,1.8,No
2017/06/09,07:30,0.364,0.228,0.391,0.358,0.327,0.189,0.118,north,1.9,No
2017/06/09,07:40,0.365,0.229,0.388,0.359,0.326,0.189,0.118,north-northwest,1.9,No
2017/06/09,07:50,0.365,0.227,0.386,0.362,0.325,0.189,0.117,north,1.2,No
2017/06/09,08:00,0.362,0.226,0.385,0.361,0.328,0.187,0.117,north,1.1,No
2017/06/09,08:10,0.362,0.225,0.385,0.358,0.324,0.189,0.119,northeast,1.7,No
2017/06/09,08:20,0.367,0.229,0.390,0.356,0.323,0.190,0.119,northeast,2.2,No
2017/06/09,08:30,0.363,0.228,0.395,0.356,0.326,0.188,0.117,east-northeast,1.1,No
2017/06/09,08:40,0.365,0.227,0.392,0.357,0.328,0.188,0.116,-,CALM,No
2017/06/09,08:50,0.365,0.226,0.391,0.356,0.328,0.189,0.118,-,CALM,No
2017/06/09,09:00,0.364,0.225,0.388,0.358,0.324,0.188,0.117,east-southeast,1.3,No
2017/06/09,09:10,0.362,0.228,0.386,0.360,0.323,0.188,0.118,southeast,1.4,No
2017/06/09,09:20,0.359,0.228,0.392,0.360,0.328,0.189,0.117,south-southeast,1.2,No
2017/06/09,09:30,0.363,0.226,0.397,0.361,0.327,0.189,0.116,southeast,1.7,No
2017/06/09,09:40,0.367,-,0.392,0.360,0.326,0.189,0.116,east-southeast,2.6,No
2017/06/09,09:50,0.366,-,0.393,0.362,0.324,0.188,0.116,southeast,1.1,No
2017/06/09,10:00,0.363,-,0.397,0.364,0.325,0.188,0.115,-,CALM,No
2017/06/09,10:10,0.361,-,0.391,0.363,0.330,0.189,0.116,south,0.9,No
2017/06/09,10:20,0.361,-,0.392,0.363,0.327,0.189,0.117,south,2.8,No
2017/06/09,10:30,0.361,-,0.390,0.362,0.325,0.188,0.116,south-southeast,3.3,No
2017/06/09,10:40,0.361,-,0.387,0.360,0.324,0.189,0.117,south-southeast,4.2,No
2017/06/09,10:50,0.368,-,0.388,0.359,0.325,0.189,0.116,southeast,4.5,No
2017/06/09,11:00,0.367,-,0.388,0.359,0.328,0.189,0.117,south-southeast,4.7,No
2017/06/09,11:10,0.365,-,0.393,0.359,0.328,0.189,0.118,south-southeast,5.2,No
2017/06/09,11:20,0.363,-,0.396,0.363,0.325,0.188,0.116,south-southeast,5.2,No
2017/06/09,11:30,0.362,-,0.394,0.364,0.324,0.189,0.116,south-southeast,4.9,No
2017/06/09,11:40,0.362,-,0.392,0.364,0.323,0.189,0.117,south-southeast,4.7,No
2017/06/09,11:50,0.362,-,0.390,0.361,0.328,0.189,0.118,south-southeast,4.4,No
2017/06/09,12:00,0.362,-,0.389,0.361,0.328,0.189,0.117,south-southeast,4.5,No
2017/06/09,12:10,0.368,-,0.390,0.359,0.326,0.189,0.117,south-southeast,5.2,No
2017/06/09,12:20,0.367,-,0.390,0.360,0.325,0.189,0.117,south-southeast,3.3,No
2017/06/09,12:30,0.366,-,0.389,0.360,0.325,0.188,0.116,south,5.7,No
2017/06/09,12:40,0.363,-,0.390,0.366,0.323,0.188,0.117,south,5.0,No
2017/06/09,12:50,0.362,-,0.393,0.366,0.328,0.189,0.119,south,4.7,No
2017/06/09,13:00,0.365,-,0.396,0.364,0.330,0.189,0.118,south-southeast,4.8,No
2017/06/09,13:10,0.369,-,0.395,0.362,0.328,0.188,0.118,south,5.7,No
2017/06/09,13:20,0.368,-,0.392,0.361,0.326,0.188,0.117,south,5.2,No
2017/06/09,13:30,0.366,-,0.393,0.360,0.326,0.189,0.116,south,7.1,No
2017/06/09,13:40,0.364,-,0.390,0.361,0.325,0.189,0.117,south,7.0,No
2017/06/09,13:50,0.363,-,0.392,0.360,0.325,0.188,0.117,south,7.0,No
2017/06/09,14:00,0.362,-,0.390,0.361,0.325,0.189,0.117,south,9.1,No
2017/06/09,14:10,0.366,-,0.391,0.361,0.324,0.189,0.117,south,8.1,No
2017/06/09,14:20,0.368,-,0.392,0.364,0.325,0.189,0.116,south,8.2,No
2017/06/09,14:30,0.367,-,0.391,0.366,0.325,0.190,0.116,south,7.3,No
2017/06/09,14:40,0.365,-,0.392,0.365,0.326,0.190,0.118,south,7.7,No
2017/06/09,14:50,0.364,-,0.393,0.363,0.326,0.188,0.117,south,8.5,No
2017/06/09,15:00,0.365,-,0.391,0.363,0.325,0.190,0.117,south,8.5,No
2017/06/09,15:10,0.369,0.227,0.390,0.369,0.324,0.190,0.116,south,8.5,No
2017/06/09,15:20,0.368,0.228,0.392,0.366,0.324,0.189,0.117,south,7.2,No
2017/06/09,15:30,0.365,0.230,0.396,0.363,0.328,0.189,0.118,south,8.4,No
2017/06/09,15:40,0.369,0.230,0.397,0.368,0.332,0.190,0.117,south,6.5,No
2017/06/09,15:50,0.369,0.228,0.396,0.363,0.330,0.189,0.117,south,6.3,No
2017/06/09,16:00,0.365,0.229,0.392,0.363,0.327,0.190,0.116,south,7.5,No
2017/06/09,16:10,0.366,0.231,0.393,0.367,0.327,0.190,0.116,south,6.4,No
2017/06/09,16:20,0.369,0.229,0.398,0.364,0.325,0.189,0.116,south,7.3,No
2017/06/09,16:30,0.367,0.230,0.394,0.365,0.325,0.190,0.117,south,4.7,No
2017/06/09,16:40,0.367,0.229,0.396,0.366,0.325,0.190,0.115,south,6.2,No
2017/06/09,16:50,0.370,0.230,0.398,0.363,0.330,0.189,0.117,south,6.2,No
2017/06/09,17:00,0.367,0.231,0.394,0.366,0.329,0.189,0.117,south,5.4,No
2017/06/09,17:10,0.365,0.229,0.399,0.365,0.327,0.189,0.116,south,6.8,No
2017/06/09,17:20,0.370,0.230,0.395,0.364,0.330,0.190,0.117,south,6.7,No
2017/06/09,17:30,0.366,0.229,0.395,0.367,0.329,0.190,0.117,south,6.9,No
2017/06/09,17:40,0.366,0.230,0.397,0.364,0.327,0.191,0.117,south,7.0,No
2017/06/09,17:50,0.369,0.230,0.393,0.368,0.330,0.189,0.117,south,6.7,No
2017/06/09,18:00,0.365,0.229,0.397,0.365,0.327,0.191,0.118,south-southwest,6.2,No
2017/06/09,18:10,0.369,0.230,0.394,0.365,0.329,0.190,0.118,south,5.9,No
2017/06/09,18:20,0.368,0.228,0.396,0.366,0.331,0.189,0.117,south,6.2,No
2017/06/09,18:30,0.367,0.231,0.395,0.363,0.327,0.191,0.117,south,6.8,No
2017/06/09,18:40,0.369,0.228,0.395,0.367,0.331,0.190,0.116,south,6.0,No
2017/06/09,18:50,0.365,0.231,0.397,0.364,0.328,0.190,0.117,south,6.1,No
2017/06/09,19:00,0.368,0.229,0.395,0.367,0.331,0.189,0.117,south,6.2,No
2017/06/09,19:10,0.366,0.231,0.397,0.364,0.328,0.190,0.117,south-southwest,5.3,No
2017/06/09,19:20,0.368,0.228,0.395,0.366,0.329,0.189,0.116,south,7.0,No
2017/06/09,19:30,0.367,0.230,0.397,0.365,0.328,0.191,0.117,south,7.3,No
2017/06/09,19:40,0.367,0.228,0.394,0.366,0.327,0.190,0.116,south,7.0,No
2017/06/09,19:50,0.367,0.230,0.396,0.365,0.328,0.190,0.118,south,5.7,No
2017/06/09,20:00,0.366,0.230,0.394,0.363,0.326,0.190,0.117,south,5.3,No
2017/06/09,20:10,0.369,0.230,0.396,0.366,0.328,0.189,0.118,south,6.1,No
2017/06/09,20:20,0.366,0.229,0.395,0.364,0.326,0.189,0.117,south-southwest,5.0,No
2017/06/09,20:30,0.368,0.230,0.396,0.366,0.329,0.190,0.117,south-southwest,4.2,No
2017/06/09,20:40,0.367,0.228,0.397,0.365,0.328,0.190,0.117,south-southwest,4.0,No
2017/06/09,20:50,0.370,0.230,0.394,0.366,0.328,0.189,0.116,south-southwest,5.3,No
2017/06/09,21:00,0.366,0.230,0.396,0.366,0.328,0.189,0.118,south-southwest,5.8,No
2017/06/09,21:10,0.369,0.230,0.394,0.365,0.328,0.189,0.117,south,6.3,No
2017/06/09,21:20,0.368,0.229,0.397,0.368,0.329,0.189,0.117,south,5.5,No
2017/06/09,21:30,0.367,0.231,0.394,0.364,0.328,0.189,0.116,south,5.3,No
2017/06/09,21:40,0.368,0.229,0.396,0.367,0.330,0.190,0.117,south-southwest,5.3,No
2017/06/09,21:50,0.367,0.231,0.396,0.363,0.326,0.189,0.117,southwest,4.7,Yes
2017/06/09,22:00,0.368,0.229,0.396,0.368,0.330,0.190,0.119,south-southwest,5.3,Yes
2017/06/09,22:10,0.365,0.230,0.398,0.365,0.329,0.191,0.119,south-southwest,5.8,Yes
2017/06/09,22:20,0.372,0.232,0.399,0.368,0.332,0.194,0.123,south-southwest,2.9,Yes
2017/06/09,22:30,0.370,0.236,0.402,0.372,0.335,0.197,0.123,south-southwest,1.7,Yes
2017/06/09,22:40,0.374,0.233,0.401,0.369,0.334,0.196,0.123,south-southwest,0.6,No
2017/06/09,22:50,0.370,0.235,0.401,0.371,0.333,0.195,0.123,northeast,0.9,Yes
2017/06/09,23:00,0.372,0.232,0.400,0.369,0.333,0.195,0.122,west,2.2,No
2017/06/09,23:10,0.370,0.233,0.400,0.370,0.332,0.194,0.121,west,2.7,No
2017/06/09,23:20,0.371,0.231,0.397,0.368,0.332,0.194,0.121,north,2.2,No
2017/06/09,23:30,0.368,0.233,0.400,0.370,0.331,0.193,0.120,-,CALM,No
2017/06/09,23:40,0.370,0.232,0.397,0.367,0.330,0.193,0.119,south-southwest,0.5,No
2017/06/09,23:50,0.369,0.232,0.398,0.367,0.330,0.192,0.119,-,CALM,No
